Location: Unspecified
(42.9300°N, 71.1866°W)
Time: 09:25:09
(UTC-04:00)

Genesis I - Visible Passes

Search period start: 25 October 2014 00:00
Search period end: 03 November 2014 23:00
Orbit: 499 x 563 km, 64.5° (Epoch: 24 October)

Date Brightness Start Highest point End Pass type
(mag) Time Alt. Az. Time Alt. Az. Time Alt. Az.
25 Oct 6.0 20:17:15 10° NNW 20:17:42 12° N 20:17:42 12° N visible
26 Oct 5.7 20:06:18 10° NNW 20:07:17 15° N 20:07:17 15° N visible
27 Oct 5.3 19:55:22 10° NNW 19:56:56 19° N 19:56:56 19° N visible
28 Oct 4.9 19:44:25 10° NNW 19:46:38 25° N 19:46:38 25° N visible
29 Oct 4.3 19:33:28 10° NNW 19:36:26 34° NNE 19:36:26 34° NNE visible
30 Oct 3.7 19:22:31 10° NNW 19:26:21 44° NE 19:26:21 44° NE visible
30 Oct 6.6 21:01:16 10° WNW 21:01:41 12° WNW 21:01:41 12° WNW visible
31 Oct 3.5 19:11:34 10° NNW 19:15:39 50° NE 19:16:25 44° E visible
31 Oct 6.3 20:50:34 10° WNW 20:51:46 14° W 20:51:46 14° W visible
01 Nov 3.4 19:00:36 10° NNW 19:04:45 57° NE 19:06:43 28° ESE visible
01 Nov 6.2 20:39:56 10° WNW 20:42:05 15° WSW 20:42:05 15° WSW visible
02 Nov 3.3 17:49:38 10° NNW 17:53:49 65° NE 17:57:19 14° SE visible
02 Nov 6.3 19:29:22 10° W 19:31:17 13° WSW 19:32:43 11° SW visible
03 Nov 3.3 17:38:40 10° NNW 17:42:52 75° NE 17:47:00 10° SE visible
03 Nov 6.5 19:19:00 10° W 19:20:16 11° WSW 19:21:32 10° SW visible
